Grand Rapids, MN

7:04 PM CDT on May 25, 2017 (GMT -0500)
Grand Rapids-Itasca County-Newstrom Field

Weather History for KGPZ - November, 2011

Change the Weather History Date:

Wednesday, November 2, 2011

  Actual Average Record
Temperature  
Mean Temperature 40 °F -  
Max Temperature 44 °F 43 °F 69 °F (1990)
Min Temperature 35 °F 28 °F -1 °F (1951)
Degree Days  
Heating Degree Days 26    
Moisture  
Dew Point 27 °F    
Average Humidity 62    
Maximum Humidity 75    
Minimum Humidity 42    
Precipitation  
Precipitation 0.00 in - - ()
Sea Level Pressure  
Sea Level Pressure 30.18 in    
Wind  
Wind Speed 8 mph (NW)    
Max Wind Speed 15 mph    
Max Gust Speed 24 mph    
Visibility 10 miles    
Events      
Averages and records for this station are not official NWS values.
T = Trace of Precipitation, MM = Missing Value Source: NWS Daily Summary

Daily Weather History Graph

Daily Weather History Graph

Search for Another Location

Airport or City:

Trip Planner

Search our weather history database for the weather conditions in past years. The results will help you decide how hot, cold, wet, or windy it might be!

Date:

Astronomy

Nov. 02, 2011 Rise Set
Actual Time 7:58 AM CDT 5:56 PM CDT
Civil Twilight 7:26 AM CDT 6:28 PM CDT
Nautical Twilight 6:50 AM CDT 7:04 PM CDT
Astronomical Twilight 6:14 AM CDT 7:39 PM CDT
Moon 2:17 PM CDT (11/2) No Moon Set
Length of Visible Light 11h 01m
Length of Day
9h 57m
Waxing Crescent, 50% of the Moon is Illuminated
Nov 2
Waxing Crescent
Nov 10
Full
Nov 18
Last Quarter
Nov 25
New
Dec 2
First Quarter

Hourly Weather History & Observations

Time (CDT) Temp. Windchill Dew Point Humidity Pressure Visibility Wind Dir Wind Speed Gust Speed Precip Events Conditions
12:15 AM 37.4 °F 33.8 °F 28.4 °F 70% 30.07 in 10.0 mi WNW 4.6 mph - N/A   Clear
12:35 AM 37.4 °F 33.8 °F 30.2 °F 75% 30.08 in 10.0 mi WNW 4.6 mph - N/A   Partly Cloudy
12:55 AM 39.2 °F 35.9 °F 30.2 °F 70% 30.08 in 10.0 mi WNW 4.6 mph - N/A   Scattered Clouds
1:15 AM 39.2 °F 35.0 °F 30.2 °F 70% 30.09 in 10.0 mi WNW 5.8 mph - N/A   Scattered Clouds
1:35 AM 39.2 °F 35.0 °F 30.2 °F 70% 30.09 in 10.0 mi NW 5.8 mph - N/A   Scattered Clouds
1:55 AM 39.2 °F 35.0 °F 28.4 °F 65% 30.10 in 10.0 mi NW 5.8 mph - N/A   Partly Cloudy
2:15 AM 37.4 °F 32.8 °F 28.4 °F 70% 30.10 in 10.0 mi NW 5.8 mph - N/A   Scattered Clouds
2:35 AM 37.4 °F 33.8 °F 28.4 °F 70% 30.10 in 10.0 mi NW 4.6 mph - N/A   Scattered Clouds
2:55 AM 37.4 °F 32.8 °F 28.4 °F 70% 30.10 in 10.0 mi NW 5.8 mph - N/A   Partly Cloudy
3:15 AM 37.4 °F 31.4 °F 28.4 °F 70% 30.10 in 10.0 mi NW 8.1 mph - N/A   Scattered Clouds
3:35 AM 37.4 °F 33.8 °F 28.4 °F 70% 30.10 in 10.0 mi NW 4.6 mph - N/A   Scattered Clouds
3:55 AM 35.6 °F 32.8 °F 28.4 °F 75% 30.10 in 10.0 mi NNW 3.5 mph - N/A   Clear
4:55 AM 37.4 °F 32.1 °F 28.4 °F 70% 30.11 in 10.0 mi NW 6.9 mph - N/A   Scattered Clouds
5:55 AM 37.4 °F 31.4 °F 28.4 °F 70% 30.14 in 10.0 mi WNW 8.1 mph - N/A   Clear
6:15 AM 37.4 °F 31.4 °F 26.6 °F 65% 30.14 in 10.0 mi NW 8.1 mph - N/A   Clear
6:35 AM 37.4 °F 32.1 °F 26.6 °F 65% 30.15 in 10.0 mi WNW 6.9 mph - N/A   Clear
6:55 AM 37.4 °F 32.8 °F 28.4 °F 70% 30.16 in 10.0 mi WNW 5.8 mph - N/A   Clear
7:15 AM 35.6 °F 29.9 °F 28.4 °F 75% 30.16 in 10.0 mi NW 6.9 mph - N/A   Clear
7:35 AM 35.6 °F 29.9 °F 28.4 °F 75% 30.16 in 10.0 mi WNW 6.9 mph - N/A   Clear
7:55 AM 35.6 °F 28.6 °F 28.4 °F 75% 30.16 in 10.0 mi NW 9.2 mph - N/A   Clear
8:15 AM 35.6 °F 28.6 °F 28.4 °F 75% 30.17 in 10.0 mi WNW 9.2 mph - N/A   Clear
8:35 AM 35.6 °F 28.6 °F 28.4 °F 75% 30.18 in 10.0 mi NW 9.2 mph - N/A   Clear
8:55 AM 35.6 °F 28.6 °F 28.4 °F 75% 30.18 in 10.0 mi NW 9.2 mph - N/A   Clear
9:15 AM 35.6 °F 28.6 °F 26.6 °F 70% 30.19 in 10.0 mi WNW 9.2 mph - N/A   Clear
9:35 AM 35.6 °F 28.0 °F 26.6 °F 70% 30.19 in 10.0 mi NW 10.4 mph - N/A   Clear
9:55 AM 35.6 °F 28.0 °F 26.6 °F 70% 30.19 in 10.0 mi NW 10.4 mph - N/A   Clear
10:15 AM 35.6 °F 27.5 °F 28.4 °F 75% 30.19 in 10.0 mi WNW 11.5 mph 17.3 mph N/A   Clear
10:35 AM 37.4 °F 29.8 °F 28.4 °F 70% 30.20 in 10.0 mi WNW 11.5 mph - N/A   Clear
10:55 AM 37.4 °F 30.8 °F 28.4 °F 70% 30.20 in 10.0 mi NW 9.2 mph - N/A   Clear
11:15 AM 37.4 °F 30.8 °F 28.4 °F 70% 30.21 in 10.0 mi WNW 9.2 mph - N/A   Clear
11:35 AM 39.2 °F 31.6 °F 28.4 °F 65% 30.22 in 10.0 mi NW 12.7 mph - N/A   Clear
11:55 AM 39.2 °F 32.0 °F 28.4 °F 65% 30.22 in 10.0 mi NW 11.5 mph - N/A   Clear
12:15 PM 39.2 °F 32.0 °F 30.2 °F 70% 30.21 in 10.0 mi NW 11.5 mph - N/A   Clear
12:35 PM 41.0 °F 34.3 °F 30.2 °F 65% 30.20 in 10.0 mi WNW 11.5 mph - N/A   Clear
12:55 PM 42.8 °F 36.2 °F 30.2 °F 61% 30.20 in 10.0 mi NW 12.7 mph - N/A   Clear
1:15 PM 44.6 °F 38.1 °F 30.2 °F 57% 30.20 in 10.0 mi NW 13.8 mph - N/A   Clear
1:35 PM 44.6 °F 38.4 °F 30.2 °F 57% 30.20 in 10.0 mi NW 12.7 mph 18.4 mph N/A   Clear
1:55 PM 44.6 °F 39.2 °F 30.2 °F 57% 30.21 in 10.0 mi NW 10.4 mph 17.3 mph N/A   Scattered Clouds
2:15 PM 44.6 °F 38.8 °F 30.2 °F 57% 30.20 in 10.0 mi NNW 11.5 mph - N/A   Mostly Cloudy
2:35 PM 44.6 °F 38.4 °F 28.4 °F 53% 30.20 in 10.0 mi NW 12.7 mph - N/A   Scattered Clouds
2:55 PM 44.6 °F 37.8 °F 28.4 °F 53% 30.20 in 10.0 mi WNW 15.0 mph - N/A   Partly Cloudy
3:15 PM 44.6 °F 38.1 °F 28.4 °F 53% 30.19 in 10.0 mi NNW 13.8 mph - N/A   Partly Cloudy
3:35 PM 42.8 °F 36.6 °F 26.6 °F 53% 30.19 in 10.0 mi NNW 11.5 mph - N/A   Clear
3:55 PM 44.6 °F 38.4 °F 26.6 °F 49% 30.19 in 10.0 mi NW 12.7 mph - N/A   Scattered Clouds
4:15 PM 44.6 °F 38.1 °F 26.6 °F 49% 30.20 in 10.0 mi NW 13.8 mph 24.2 mph N/A   Mostly Cloudy
4:35 PM 44.6 °F 38.1 °F 24.8 °F 46% 30.21 in 10.0 mi NW 13.8 mph - N/A   Scattered Clouds
4:55 PM 44.6 °F 39.2 °F 24.8 °F 46% 30.21 in 10.0 mi WNW 10.4 mph - N/A   Clear
5:15 PM 44.6 °F 38.8 °F 23.0 °F 43% 30.21 in 10.0 mi WNW 11.5 mph - N/A   Clear
5:35 PM 42.8 °F 36.6 °F 21.2 °F 42% 30.22 in 10.0 mi WNW 11.5 mph - N/A   Clear
5:55 PM 41.0 °F 35.8 °F 21.2 °F 45% 30.22 in 10.0 mi WNW 8.1 mph - N/A   Clear
6:15 PM 39.2 °F 34.2 °F 21.2 °F 49% 30.22 in 10.0 mi WNW 6.9 mph - N/A   Clear
6:35 PM 39.2 °F 33.6 °F 21.2 °F 49% 30.23 in 10.0 mi NW 8.1 mph - N/A   Clear
6:55 PM 39.2 °F 33.6 °F 21.2 °F 49% 30.23 in 10.0 mi NW 8.1 mph - N/A   Clear
7:15 PM 37.4 °F 30.8 °F 21.2 °F 52% 30.23 in 10.0 mi NW 9.2 mph - N/A   Clear
7:35 PM 37.4 °F 31.4 °F 21.2 °F 52% 30.23 in 10.0 mi NW 8.1 mph - N/A   Clear
7:55 PM 37.4 °F 31.4 °F 21.2 °F 52% 30.23 in 10.0 mi NW 8.1 mph - N/A   Clear
8:15 PM 35.6 °F 29.9 °F 21.2 °F 56% 30.23 in 10.0 mi NW 6.9 mph - N/A   Clear
8:35 PM 35.6 °F 29.2 °F 23.0 °F 60% 30.23 in 10.0 mi NW 8.1 mph - N/A   Clear
8:55 PM 35.6 °F 29.9 °F 23.0 °F 60% 30.23 in 10.0 mi WNW 6.9 mph - N/A   Clear
9:15 PM 35.6 °F 28.6 °F 21.2 °F 56% 30.23 in 10.0 mi WNW 9.2 mph - N/A   Clear
9:35 PM 35.6 °F 30.7 °F 21.2 °F 56% 30.23 in 10.0 mi NW 5.8 mph - N/A   Clear
9:55 PM 32.0 °F 27.5 °F 21.2 °F 64% 30.23 in 10.0 mi NW 4.6 mph - N/A   Clear
10:15 PM 30.2 °F 25.4 °F 21.2 °F 69% 30.23 in 10.0 mi WNW 4.6 mph - N/A   Clear
10:35 PM 32.0 °F 27.5 °F 21.2 °F 64% 30.23 in 10.0 mi WNW 4.6 mph - N/A   Clear
10:55 PM 33.8 °F 28.6 °F 24.8 °F 70% 30.23 in 10.0 mi WNW 5.8 mph - N/A   Clear
11:15 PM 33.8 °F 29.6 °F 23.0 °F 65% 30.23 in 10.0 mi WNW 4.6 mph - N/A   Clear
11:35 PM 33.8 °F 28.6 °F 24.8 °F 70% 30.22 in 10.0 mi WNW 5.8 mph - N/A   Clear
11:55 PM 33.8 °F 30.8 °F 23.0 °F 65% 30.22 in 10.0 mi WNW 3.5 mph - N/A   Clear